Home   Weather   Pensacola   Past weeks

Flag for USA Past Weather in Pensacola, Florida, USA — Yesterday and Last 2 Weeks

Now
60 °F

Overcast.


Feels Like: 60 °F
Forecast: 60 / 73 °F
Wind: 12 mph from East

Location: Pensacola Regional Airport

Current Time: Dec 3, 2016 at 10:06:01 pm

Latest Report: Dec 3, 2016 at 8:53 pm


Visibility: 10 mi

Pressure: 30.08 "Hg

Humidity: 46%

Dew Point: 39 °F

Location of PensacolaLocation

Past Weather in Pensacola — Graph

°F

Pensacola Temperature Yesterday

Maximum temperature yesterday: 66 °F (at 11:53 am)
Minimum temperature yesterday: 47 °F (at 12:53 am)
Average temperature yesterday: 57 °F

High & Low Weather Summary for the Past Weeks

 TemperatureHumidityPressure
High81 °F (Nov 29, 11:53 am)97% (Nov 25, 3:53 am)30.38 "Hg (Nov 25, 3:53 am)
Low40 °F (Nov 21, 6:53 am)11% (Nov 21, 2:53 pm)29.75 "Hg (Nov 29, 2:53 am)
Average61 °F59%30.13 "Hg
* Reported Nov 18 8:53 pm — Dec 3 8:53 pm, Pensacola, Weather by CustomWeather, © 2016

Note: Actual official high and low records may vary slightly from our data, if they occured in-between our weather recording intervals... More about our weather records

Advertising

Pensacola Weather History for the Previous 24 Hours

Scroll right to see more
 ConditionsComfort  
Time TempWeatherWind HumidityBarometerVisibility
8:53 pm
Sat, Dec 3
60 °FOvercast.12 mph46%30.08 "Hg10 mi
7:53 pm60 °FOvercast.7 mph46%30.11 "Hg10 mi
6:53 pm60 °FMostly cloudy.6 mph44%30.12 "Hg10 mi
5:53 pm62 °FMostly cloudy.5 mph39%30.12 "Hg10 mi
4:53 pm63 °FPassing clouds.7 mph37%30.10 "Hg10 mi
3:53 pm66 °FPassing clouds.7 mph32%30.11 "Hg10 mi
2:53 pm68 °FBroken clouds.7 mph28%30.10 "Hg10 mi
1:53 pm69 °FOvercast.8 mph26%30.11 "Hg10 mi
12:53 pm66 °FMostly cloudy.12 mph31%30.12 "Hg10 mi
11:53 am64 °FScattered clouds.10 mph34%30.14 "Hg10 mi
10:53 am60 °FPassing clouds.10 mph42%30.18 "Hg10 mi
9:53 am59 °FBroken clouds.10 mph42%30.20 "Hg10 mi
8:53 am57 °FOvercast.8 mph44%30.23 "Hg10 mi
7:53 am57 °FOvercast.8 mph46%30.22 "Hg10 mi
6:53 am57 °FMostly cloudy.6 mph44%30.19 "Hg10 mi
5:53 am57 °FSunny.9 mph44%30.19 "Hg10 mi
3:53 am57 °FOvercast.6 mph46%30.20 "Hg10 mi
12:53 am57 °FPassing clouds.5 mph46%30.22 "Hg10 mi
11:53 pm
Fri, Dec 2
58 °FPassing clouds.7 mph43%30.22 "Hg10 mi
10:53 pm58 °FPassing clouds.6 mph43%30.23 "Hg10 mi
Weather by CustomWeather, © 2016

See weather overviewHow to use our weather pages